OE7DRT-13 Weather Reports


time (UTC)temp
C
wind
direction
speed
KPH
gust
KPH
rain 1hr
cm
rain 24hr
cm
rain mn
cm
humidity
%
barometer
mb
20260507124554 15 348 3.2 11.3 0.00 0.00 0.00 44 1011.7
20260507124031 15 211 3.2 11.3 0.00 0.00 0.00 43 1011.7
20260507123530 14 237 1.6 9.7 0.00 0.00 0.00 45 1011.7
20260507123048 14 172 3.2 9.7 0.00 0.00 0.00 45 1011.6
20260507122526 14 138 3.2 9.7 0.00 0.00 0.00 45 1011.6
20260507122024 16 175 3.2 11.3 0.00 0.00 0.00 43 1011.7
20260507121523 16 262 1.6 3.2 0.00 0.00 0.00 43 1011.6
20260507121021 15 339 1.6 9.7 0.00 0.00 0.00 42 1011.6
20260507120519 15 326 3.2 9.7 0.00 0.00 0.00 41 1011.7
20260507120018 15 338 3.2 9.7 0.00 0.00 0.00 43 1011.7
20260507115536 13 70 1.6 3.2 0.00 0.00 0.00 44 1011.9
20260507115034 13 337 0.0 3.2 0.00 0.00 0.00 44 1011.9
20260507114532 12 306 1.6 4.8 0.00 0.00 0.00 47 1012.1
20260507114031 12 169 1.6 3.2 0.00 0.00 0.00 50 1012.1
20260507113530 12 322 0.0 1.6 0.00 0.00 0.00 51 1012.1
20260507113028 13 336 4.8 9.7 0.00 0.00 0.00 48 1012.2
20260507112606 13 345 1.6 6.4 0.00 0.00 0.00 48 1012.1
20260507112024 13 193 1.6 6.4 0.00 0.00 0.00 52 1012.1
20260507111523 12 168 3.2 6.4 0.00 0.00 0.00 54 1012.2
20260507111021 12 165 3.2 11.3 0.00 0.00 0.00 56 1012.2
20260507110519 12 171 3.2 6.4 0.00 0.00 0.00 57 1012.4
20260507110017 13 191 3.2 6.4 0.00 0.00 0.00 49 1012.4
20260507105515 13 184 3.2 11.3 0.00 0.00 0.00 51 1012.5
20260507105034 12 296 3.2 11.3 0.00 0.00 0.00 52 1012.7
20260507104532 12 4 4.8 14.5 0.00 0.00 0.00 53 1012.6
20260507104030 12 171 1.6 9.7 0.00 0.00 0.00 54 1012.6
20260507103528 12 224 1.6 6.4 0.00 0.00 0.00 54 1012.5
20260507103027 12 143 3.2 9.7 0.00 0.00 0.00 54 1012.6
20260507102525 12 187 1.6 12.9 0.00 0.00 0.00 57 1012.6
20260507102023 11 333 3.2 14.5 0.00 0.00 0.00 57 1012.6
20260507101521 12 350 4.8 14.5 0.00 0.00 0.00 55 1012.7
20260507101101 12 185 1.6 4.8 0.00 0.00 0.00 54 1012.6
20260507100518 13 313 3.2 11.3 0.00 0.00 0.00 53 1012.7
20260507100016 12 313 4.8 16.1 0.00 0.00 0.00 54 1012.6
20260507095535 12 312 4.8 16.1 0.00 0.00 0.00 55 1012.8
20260507095033 11 223 1.6 6.4 0.00 0.00 0.00 57 1012.7
20260507094531 12 220 1.6 6.4 0.00 0.00 0.00 56 1012.7
20260507094030 11 283 1.6 4.8 0.00 0.00 0.00 58 1012.7
20260507093528 11 340 3.2 11.3 0.00 0.00 0.00 58 1012.7
20260507093026 11 28 0.0 3.2 0.00 0.00 0.00 57 1012.7
20260507092524 11 311 1.6 6.4 0.00 0.00 0.00 57 1012.7
20260507092022 11 349 6.4 14.5 0.00 0.00 0.00 58 1012.8
20260507091541 11 328 3.2 12.9 0.00 0.00 0.00 59 1012.5
20260507091020 11 149 1.6 12.9 0.00 0.00 0.00 62 1012.6
20260507090537 11 324 3.2 12.9 0.00 0.00 0.00 63 1012.6
20260507090016 11 340 4.8 12.9 0.00 0.00 0.00 62 1012.6
20260507085534 11 326 3.2 11.3 0.00 0.00 0.00 63 1012.6
20260507085052 10 349 1.6 4.8 0.00 0.00 0.00 64 1012.5
20260507084530 10 328 1.6 4.8 0.00 0.00 0.00 65 1012.5
20260507084029 10 342 1.6 4.8 0.00 0.00 0.00 64 1012.7
20260507083527 10 346 1.6 4.8 0.00 0.00 0.00 64 1012.6
20260507083025 10 0.0 0.0 0.00 0.00 0.00 65 1012.6
20260507082524 9 0.0 0.0 0.00 0.00 0.00 69 1012.6
20260507082021 9 28 0.0 1.6 0.00 0.00 0.00 69 1012.7
20260507081520 9 349 1.6 4.8 0.00 0.00 0.00 68 1012.7
20260507081038 9 329 3.2 6.4 0.00 0.00 0.00 68 1012.7
20260507080517 9 353 0.0 4.8 0.00 0.00 0.00 70 1012.6
20260507080035 8 224 0.0 1.6 0.00 0.00 0.00 69 1012.6
20260507075533 9 349 0.0 1.6 0.00 0.00 0.00 68 1012.7
20260507075031 9 341 0.0 1.6 0.00 0.00 0.00 70 1012.7
20260507074530 8 338 0.0 3.2 0.00 0.00 0.00 69 1012.6
20260507074028 9 163 1.6 4.8 0.00 0.00 0.00 70 1012.7
20260507073526 8 359 1.6 3.2 0.00 0.00 0.00 71 1012.7
20260507073024 8 223 0.0 3.2 0.00 0.00 0.00 72 1012.7
20260507072524 8 299 0.0 4.8 0.00 0.00 0.00 72 1012.8
20260507072021 8 294 0.0 1.6 0.00 0.00 0.00 74 1012.7
20260507071559 8 221 0.0 3.2 0.00 0.00 0.00 76 1012.8
20260507071017 7 3 0.0 3.2 0.00 0.00 0.00 77 1012.7
20260507070516 7 341 0.0 3.2 0.00 0.00 0.00 78 1012.6
20260507070034 7 329 1.6 3.2 0.00 0.00 0.00 78 1012.7
20260507065532 7 4 1.6 3.2 0.00 0.00 0.00 78 1012.7
20260507065031 7 0.0 0.0 0.00 0.00 0.00 79 1012.6
20260507064529 7 0.0 0.0 0.00 0.00 0.00 81 1012.6
20260507064027 7 326 0.0 1.6 0.00 0.00 0.00 82 1012.7
20260507063526 7 318 0.0 1.6 0.00 0.00 0.00 82 1012.6
20260507063024 7 0.0 0.0 0.00 0.00 0.00 83 1012.6
20260507062522 7 0.0 0.0 0.00 0.00 0.00 83 1012.6
20260507062020 7 0.0 0.0 0.00 0.00 0.00 83 1012.4
20260507061519 7 214 0.0 1.6 0.00 0.00 0.00 83 1012.5
20260507061017 6 336 0.0 3.2 0.00 0.00 0.00 84 1012.4
20260507060535 6 348 0.0 3.2 0.00 0.00 0.00 82 1012.4
20260507060054 6 0.0 0.0 0.00 0.00 0.00 82 1012.4
20260507055532 6 0.0 0.0 0.00 0.00 0.00 82 1012.2
20260507055030 6 320 0.0 1.6 0.00 0.00 0.00 81 1012.3
20260507054528 7 0.0 0.0 0.00 0.00 0.00 80 1012.1
20260507054047 7 0.0 0.0 0.00 0.00 0.00 80 1012.1
20260507053525 7 0.0 0.0 0.00 0.00 0.00 80 1012.3
20260507053024 7 0.0 0.0 0.00 0.00 0.00 82 1012.2
20260507052522 6 0.0 0.0 0.00 0.00 0.00 83 1012.2
20260507052019 6 0.0 0.0 0.00 0.00 0.00 84 1012.1
20260507051518 6 0.0 0.0 0.00 0.00 0.00 86 1012.0
20260507051016 5 334 1.6 3.2 0.00 0.00 0.00 86 1011.8
20260507050534 5 0.0 0.0 0.00 0.00 0.00 86 1011.7
20260507050033 5 0.0 0.0 0.00 0.00 0.00 86 1011.8
20260507045531 5 343 0.0 1.6 0.00 0.00 0.00 87 1011.8
20260507045030 5 334 0.0 1.6 0.00 0.00 0.00 87 1011.7
20260507044528 5 0.0 0.0 0.00 0.00 0.00 87 1011.6
20260507044026 5 0.0 0.0 0.00 0.00 0.00 88 1011.5
20260507043525 5 0.0 0.0 0.00 0.00 0.00 87 1011.5
20260507043023 5 0.0 0.0 0.00 0.00 0.00 88 1011.4
20260507042522 5 0.0 0.0 0.00 0.00 0.00 87 1011.5
20260507042019 5 0.0 0.0 0.00 0.00 0.00 88 1011.4
20260507041559 5 0.0 0.0 0.00 0.00 0.00 88 1011.4
20260507041017 5 0.0 0.0 0.00 0.00 0.00 89 1011.4
20260507040535 5 0.0 0.0 0.00 0.00 0.00 89 1011.4
20260507040033 5 0.0 0.0 0.00 0.00 0.00 89 1011.4
20260507035531 5 0.0 0.0 0.00 0.00 0.00 88 1011.2
20260507035050 5 0.0 0.0 0.00 0.00 0.00 88 1011.2
20260507034528 5 0.0 0.0 0.00 0.00 0.00 88 1011.3
20260507034026 5 0.0 0.0 0.00 0.00 0.00 88 1011.2
20260507033525 5 0.0 0.0 0.00 0.00 0.00 88 1011.2
20260507033023 5 0.0 0.0 0.00 0.00 0.00 88 1011.1
20260507032522 5 0.0 0.0 0.00 0.00 0.00 87 1011.1
20260507032020 5 0.0 0.0 0.00 0.00 0.00 87 1010.9
20260507031518 5 1 1.6 6.4 0.00 0.00 0.00 86 1010.9
20260507031017 5 319 1.6 6.4 0.00 0.00 0.00 86 1010.9
20260507030555 6 0.0 0.0 0.00 0.00 0.00 85 1011.0
20260507030033 6 0.0 0.0 0.00 0.00 0.00 85 1011.1
20260507025552 6 0.0 0.0 0.00 0.00 0.00 85 1011.1
20260507025030 6 0.0 0.0 0.00 0.00 0.00 85 1011.2
20260507024609 5 0.0 0.0 0.00 0.00 0.00 85 1011.2
20260507024027 6 346 0.0 3.2 0.00 0.00 0.00 84 1011.2
20260507023547 6 347 0.0 3.2 0.00 0.00 0.00 83 1011.2
20260507023023 6 0.0 0.0 0.00 0.00 0.00 82 1011.1
20260507022522 6 0.0 0.0 0.00 0.00 0.00 82 1011.0
20260507022020 6 215 0.0 1.6 0.00 0.00 0.00 80 1011.1
20260507021518 6 231 0.0 1.6 0.00 0.00 0.00 82 1011.0
20260507021016 6 232 0.0 1.6 0.00 0.00 0.00 82 1011.1
20260507020535 6 0.0 0.0 0.00 0.00 0.00 84 1011.0
20260507020053 6 0.0 0.0 0.00 0.00 0.00 85 1011.1
20260507015551 5 0.0 0.0 0.00 0.00 0.00 85 1011.1
20260507015030 5 0.0 0.0 0.00 0.00 0.00 85 1011.0
20260507014528 5 0.0 0.0 0.00 0.00 0.00 85 1010.9
20260507014046 5 0.0 0.0 0.00 0.00 0.00 84 1010.8
20260507013525 5 0.0 0.0 0.00 0.00 0.00 85 1010.8
20260507013043 6 0.0 0.0 0.00 0.00 0.00 85 1010.6
20260507012522 6 0.0 0.0 0.00 0.00 0.00 85 1010.6
20260507012020 6 0.0 0.0 0.00 0.00 0.00 84 1010.6
20260507011538 6 0.0 0.0 0.00 0.00 0.00 84 1010.5
20260507011016 6 0.0 0.0 0.00 0.00 0.00 84 1010.6
20260507010555 6 0.0 0.0 0.00 0.00 0.00 82 1010.7
20260507010033 6 0.0 0.0 0.00 0.00 0.00 81 1010.7
20260507005532 7 0.0 0.0 0.00 0.00 0.00 81 1010.7
20260507005050 7 0.0 0.0 0.00 0.00 0.00 80 1010.7
20260507004548 7 0.0 0.0 0.00 0.00 0.00 80 1010.7
20260507004026 7 0.0 0.0 0.00 0.00 0.00 80 1010.7
20260507003524 7 0.0 0.0 0.00 0.00 0.00 79 1010.7
20260507003023 7 0.0 0.0 0.00 0.00 0.00 80 1010.6
20260507002542 7 0.0 0.0 0.00 0.00 0.00 79 1010.6
20260507002019 7 0.0 0.0 0.00 0.00 0.00 79 1010.6
20260507001517 7 0.0 0.0 0.00 0.00 0.00 78 1010.4
20260507001016 7 0.0 0.0 0.00 0.00 0.00 77 1010.5
20260507000557 7 0.0 0.0 0.00 0.00 0.00 75 1010.5
20260507000033 7 0.0 0.0 0.00 0.00 0.00 76 1010.6
20260506235531 7 0.0 0.0 0.00 0.00 0.00 78 1010.5
20260506235029 7 0.0 0.0 0.00 0.00 0.00 76 1010.4
20260506234528 7 0.0 0.0 0.00 0.00 0.00 75 1010.5
20260506234027 7 0.0 0.0 0.00 0.00 0.00 77 1010.5
20260506233544 6 0.0 0.0 0.00 0.00 0.00 78 1010.5
20260506233025 6 0.0 0.0 0.00 0.00 0.00 78 1010.5
20260506232521 7 0.0 0.0 0.00 0.00 0.00 78 1010.4
20260506232019 7 0.0 0.0 0.00 0.00 0.00 78 1010.3
20260506231518 7 0.0 0.0 0.00 0.00 0.00 78 1010.3
20260506231016 7 0.0 0.0 0.00 0.00 0.00 77 1010.3
20260506230536 7 0.0 0.0 0.00 0.00 0.00 76 1010.3
20260506230033 7 0.0 0.0 0.00 0.00 0.00 74 1010.3
20260506225531 8 0.0 0.0 0.00 0.00 0.00 72 1010.3
20260506225050 8 190 1.6 3.2 0.00 0.00 0.00 72 1010.2
20260506224528 8 211 1.6 3.2 0.00 0.00 0.00 71 1010.1
20260506224026 8 207 0.0 1.6 0.00 0.00 0.00 72 1010.2
20260506223524 8 200 0.0 1.6 0.00 0.00 0.00 72 1010.3
20260506223023 8 0.0 0.0 0.00 0.00 0.00 72 1010.3
20260506222522 8 228 0.0 1.6 0.00 0.00 0.00 71 1010.3
20260506222019 8 223 0.0 1.6 0.00 0.00 0.00 72 1010.3
20260506221519 8 0.0 0.0 0.00 0.00 0.00 73 1010.3
20260506221036 8 0.0 0.0 0.00 0.00 0.00 72 1010.3
20260506220534 8 0.0 0.0 0.00 0.00 0.00 73 1010.5
20260506220033 8 0.0 0.0 0.00 0.00 0.00 72 1010.4
20260506215531 8 0.0 0.0 0.00 0.00 0.00 72 1010.4
20260506215029 8 332 0.0 1.6 0.00 0.00 0.00 69 1010.4
20260506214548 8 0.0 0.0 0.00 0.00 0.00 69 1010.3
20260506214026 8 0.0 0.0 0.00 0.00 0.00 70 1010.2
20260506213524 8 346 1.6 6.4 0.00 0.00 0.00 68 1010.3
20260506213023 8 7 0.0 1.6 0.00 0.00 0.00 68 1010.3
20260506212541 9 360 1.6 9.7 0.00 0.00 0.00 67 1010.1
20260506212019 9 335 1.6 4.8 0.00 0.00 0.00 67 1010.1
20260506211517 9 356 3.2 6.4 0.00 0.00 0.00 66 1010.0
20260506211016 9 354 3.2 4.8 0.00 0.00 0.00 66 1010.1
20260506210534 9 16 3.2 6.4 0.00 0.00 0.00 65 1010.0
20260506210032 9 345 0.0 1.6 0.00 0.00 0.00 73 1009.9
20260506205530 9 0.0 0.0 0.00 0.00 0.00 74 1009.8
20260506205029 9 0.0 0.0 0.00 0.00 0.00 72 1009.9
20260506204527 9 192 0.0 1.6 0.00 0.00 0.00 72 1009.9
20260506204105 9 0.0 0.0 0.00 0.00 0.00 71 1009.8
20260506203527 9 228 0.0 1.6 0.00 0.00 0.00 72 1009.7
20260506203022 9 10 1.6 3.2 0.00 0.00 0.00 72 1009.5
20260506202520 9 0.0 0.0 0.00 0.00 0.00 72 1009.6
20260506202059 9 0.0 0.0 0.00 0.00 0.00 70 1009.6
20260506201516 9 0.0 0.0 0.00 0.00 0.00 72 1009.3
20260506201035 9 0.0 0.0 0.00 0.00 0.00 71 1009.2
20260506200533 9 0.0 0.0 0.00 0.00 0.00 71 1009.1
20260506200031 9 0.0 0.0 0.00 0.00 0.00 71 1008.9
20260506195529 9 0.0 0.0 0.00 0.00 0.00 72 1008.8
20260506195028 9 0.0 0.0 0.00 0.00 0.00 70 1008.7
20260506194528 9 0.0 0.0 0.00 0.00 0.00 70 1008.8
20260506194024 10 0.0 0.0 0.00 0.00 0.00 70 1008.6
20260506193522 10 0.0 0.0 0.00 0.00 0.00 70 1008.6
20260506193020 10 0.0 0.0 0.00 0.00 0.00 69 1008.5
20260506192519 10 0.0 0.0 0.00 0.00 0.00 68 1008.5
20260506192037 10 0.0 0.0 0.00 0.00 0.00 69 1008.5
20260506191534 10 0.0 0.0 0.00 0.00 0.00 68 1008.4
20260506191033 10 0.0 0.0 0.00 0.00 0.00 67 1008.4
20260506190553 10 151 0.0 1.6 0.00 0.00 0.00 66 1008.2
20260506190029 10 346 0.0 1.6 0.00 0.00 0.00 64 1008.2
20260506185527 11 5 0.0 3.2 0.00 0.00 0.00 63 1008.1
20260506185026 11 0.0 0.0 0.00 0.00 0.00 61 1008.0
20260506184523 11 217 0.0 3.2 0.00 0.00 0.00 60 1008.0
20260506184022 11 194 1.6 6.4 0.00 0.00 0.00 59 1007.9
20260506183520 11 349 3.2 6.4 0.00 0.00 0.00 59 1007.8
20260506183018 12 326 1.6 4.8 0.00 0.00 0.00 58 1007.8
20260506182517 12 159 0.0 1.6 0.00 0.00 0.00 61 1007.8
20260506182035 12 17 0.0 4.8 0.00 0.00 0.00 59 1007.7
20260506181533 12 0.0 0.0 0.00 0.00 0.00 65 1007.6
20260506181031 12 359 1.6 4.8 0.00 0.00 0.00 63 1007.5
20260506180529 12 186 0.0 4.8 0.00 0.00 0.00 62 1007.2
20260506180048 12 205 0.0 1.6 0.00 0.00 0.00 61 1007.0
20260506175525 12 0.0 0.0 0.00 0.00 0.00 62 1007.0
20260506175103 13 25 1.6 4.8 0.00 0.00 0.00 59 1006.8
20260506174521 13 12 3.2 11.3 0.00 0.00 0.00 55 1006.7
20260506174019 13 0 1.6 4.8 0.00 0.00 0.00 54 1006.6
20260506173517 13 21 1.6 6.4 0.00 0.00 0.00 54 1006.4
20260506173016 12 28 0.0 9.7 0.00 0.00 0.00 61 1006.5
20260506172534 12 38 0.0 1.6 0.00 0.00 0.00 64 1006.4
20260506172032 13 0.0 0.0 0.00 0.00 0.00 65 1006.4
20260506171530 13 0.0 0.0 0.00 0.00 0.00 63 1006.3
20260506171029 12 0.0 0.0 0.00 0.00 0.00 63 1006.3
20260506170527 13 0.0 0.0 0.00 0.00 0.00 62 1006.2
20260506170046 13 8 1.6 4.8 0.00 0.00 0.00 58 1006.2
20260506165524 13 189 0.0 3.2 0.00 0.00 0.00 55 1006.1
20260506165022 13 202 0.0 3.2 0.00 0.00 0.00 55 1006.1
20260506164520 13 0.0 0.0 0.00 0.00 0.00 56 1006.1
20260506164039 13 0.0 0.0 0.00 0.00 0.00 55 1006.2
20260506163537 14 0.0 0.0 0.00 0.00 0.00 55 1006.2
20260506163035 13 21 0.0 1.6 0.00 0.00 0.00 56 1006.3
20260506162533 14 338 3.2 6.4 0.00 0.00 0.00 56 1006.2
20260506162032 14 146 1.6 4.8 0.00 0.00 0.00 53 1006.2
20260506161530 14 329 1.6 4.8 0.00 0.00 0.00 52 1006.3
20260506161028 13 295 1.6 4.8 0.00 0.00 0.00 54 1006.2
20260506160526 13 168 1.6 4.8 0.00 0.00 0.00 55 1006.2
20260506160025 13 183 1.6 4.8 0.00 0.00 0.00 58 1006.3
20260506155523 13 176 1.6 3.2 0.00 0.00 0.00 59 1006.2
20260506155021 13 183 3.2 6.4 0.00 0.00 0.00 59 1006.2
20260506154519 13 188 3.2 4.8 0.00 0.00 0.00 59 1006.2
20260506154018 13 189 1.6 4.8 0.00 0.00 0.00 58 1006.2
20260506153516 13 308 0.0 1.6 0.00 0.00 0.00 58 1006.2
20260506153034 13 359 1.6 4.8 0.00 0.00 0.00 57 1006.1
20260506152533 13 340 0.0 4.8 0.00 0.00 0.00 59 1006.2
20260506152031 13 147 0.0 1.6 0.00 0.00 0.00 58 1006.1
20260506151529 13 206 0.0 3.2 0.00 0.00 0.00 59 1006.1
20260506151028 13 172 1.6 4.8 0.00 0.00 0.00 59 1006.1
20260506150525 13 165 1.6 4.8 0.00 0.00 0.00 58 1006.2
20260506150044 13 169 0.0 3.2 0.00 0.00 0.00 58 1006.3
20260506145522 13 238 0.0 3.2 0.00 0.00 0.00 58 1006.2
20260506145020 13 222 1.6 4.8 0.00 0.00 0.00 56 1006.2
20260506144539 13 194 1.6 11.3 0.00 0.00 0.00 56 1006.1
20260506144017 13 221 3.2 12.9 0.00 0.00 0.00 57 1006.2
20260506143535 13 148 4.8 17.7 0.00 0.00 0.00 57 1006.2
20260506143034 13 159 4.8 12.9 0.00 0.00 0.00 56 1006.2
20260506142532 13 268 1.6 6.4 0.00 0.00 0.00 54 1006.1
20260506142050 14 352 8.0 14.5 0.00 0.00 0.00 50 1006.1
20260506141549 14 352 12.9 25.7 0.00 0.00 0.00 49 1006.1
20260506141027 14 5 16.1 29.0 0.00 0.00 0.00 49 1005.9
20260506140524 14 355 11.3 20.9 0.00 0.00 0.00 49 1005.8
20260506140023 15 23 14.5 29.0 0.00 0.00 0.00 48 1005.9
20260506135521 15 360 12.9 25.7 0.00 0.00 0.00 48 1005.8
20260506135019 15 7 12.9 25.7 0.00 0.00 0.00 47 1005.8
20260506134518 15 15 14.5 29.0 0.00 0.00 0.00 47 1005.8
20260506134056 14 354 11.3 22.5 0.00 0.00 0.00 47 1005.9
20260506133534 15 12 12.9 24.1 0.00 0.00 0.00 47 1006.1
20260506133033 15 10 12.9 24.1 0.00 0.00 0.00 47 1006.0
20260506132531 15 18 11.3 25.7 0.00 0.00 0.00 46 1005.9
20260506132030 15 4 11.3 20.9 0.00 0.00 0.00 46 1006.1
20260506131548 15 22 8.0 20.9 0.00 0.00 0.00 46 1005.9
20260506131026 15 33 9.7 25.7 0.00 0.00 0.00 47 1006.1
20260506130524 15 4 11.3 22.5 0.00 0.00 0.00 46 1006.2
20260506130022 15 1 12.9 25.7 0.00 0.00 0.00 44 1006.0
20260506125520 15 7 14.5 38.6 0.00 0.00 0.00 44 1005.8
20260506125039 16 360 12.9 27.4 0.00 0.00 0.00 44 1005.6